Oxford, NC

4:21 PM EDT on July 21, 2017 (GMT -0400)
Henderson-Oxford

Weather History for KHNZ - January, 2013

Change the Weather History Date:

Sunday, January 20, 2013

  Actual Average (KTDF) Record (KTDF)
Temperature  
Mean Temperature 47 °F -  
Max Temperature 59 °F 44 °F 66 °F (2006)
Min Temperature 35 °F 23 °F 5 °F (1967)
Degree Days  
Heating Degree Days 18    
Moisture  
Dew Point 28 °F    
Average Humidity 52    
Maximum Humidity 76    
Minimum Humidity 29    
Precipitation  
Precipitation 0.00 in - - ()
Sea Level Pressure  
Sea Level Pressure 30.05 in    
Wind  
Wind Speed 9 mph (WSW)    
Max Wind Speed 14 mph    
Max Gust Speed 21 mph    
Visibility 10 miles    
Events      
Averages and records for this station are not official NWS values.
T = Trace of Precipitation, MM = Missing Value Source: NWS Daily Summary

Daily Weather History Graph

Daily Weather History Graph

Search for Another Location

Airport or City:

Trip Planner

Search our weather history database for the weather conditions in past years. The results will help you decide how hot, cold, wet, or windy it might be!

Date:

Astronomy

Jan. 20, 2013 Rise Set
Actual Time 7:22 AM EST 5:27 PM EST
Civil Twilight 6:55 AM EST 5:55 PM EST
Nautical Twilight 6:23 AM EST 6:27 PM EST
Astronomical Twilight 5:53 AM EST 6:57 PM EST
Moon 12:27 PM EST (1/20) 1:54 AM EST (1/20)
Length of Visible Light 11h 00m
Length of Day
10h 05m
Waxing Gibbous, 66% of the Moon is Illuminated
Jan 20
Waxing Gibbous
Jan 26
Full
Feb 3
Last Quarter
Feb 10
New
Feb 17
First Quarter

Hourly Weather History & Observations

Time (EST) Temp. Windchill Dew Point Humidity Pressure Visibility Wind Dir Wind Speed Gust Speed Precip Events Conditions
12:15 AM 37.6 °F 31.6 °F 27.9 °F 68% 30.12 in 10.0 mi SW 8.1 mph - N/A   Clear
12:35 AM 37.0 °F 29.8 °F 28.4 °F 71% 30.11 in 10.0 mi SSW 10.4 mph - N/A   Clear
12:55 AM 38.1 °F 31.7 °F 28.4 °F 68% 30.11 in 10.0 mi SSW 9.2 mph - N/A   Clear
1:15 AM 37.9 °F 31.5 °F 28.9 °F 70% 30.10 in 10.0 mi SSW 9.2 mph - N/A   Clear
1:35 AM 37.4 °F 30.3 °F 29.3 °F 73% 30.10 in 10.0 mi SW 10.4 mph - N/A   Clear
1:55 AM 38.3 °F 30.9 °F 29.8 °F 72% 30.09 in 10.0 mi SSW 11.5 mph - N/A   Clear
2:15 AM 38.3 °F 31.4 °F 29.8 °F 72% 30.09 in 10.0 mi SW 10.4 mph - N/A   Clear
2:35 AM 38.3 °F 31.4 °F 29.8 °F 72% 30.08 in 10.0 mi SSW 10.4 mph - N/A   Clear
2:55 AM 38.7 °F 31.4 °F 29.7 °F 70% 30.07 in 10.0 mi SW 11.5 mph - N/A   Clear
3:15 AM 38.5 °F 31.6 °F 29.3 °F 70% 30.07 in 10.0 mi SW 10.4 mph - N/A   Clear
3:35 AM 38.5 °F 31.6 °F 29.3 °F 70% 30.07 in 10.0 mi SW 10.4 mph - N/A   Clear
3:55 AM 39.7 °F 32.7 °F 28.8 °F 65% 30.06 in 10.0 mi SW 11.5 mph - N/A   Clear
4:15 AM 39.4 °F 32.7 °F 28.9 °F 66% 30.06 in 10.0 mi SW 10.4 mph - N/A   Clear
4:35 AM 39.4 °F 32.3 °F 29.1 °F 67% 30.05 in 10.0 mi SW 11.5 mph - N/A   Clear
4:55 AM 38.5 °F 32.1 °F 29.3 °F 70% 30.05 in 10.0 mi SW 9.2 mph - N/A   Clear
5:15 AM 38.3 °F 31.4 °F 29.3 °F 70% 30.05 in 10.0 mi SW 10.4 mph - N/A   Clear
5:35 AM 38.1 °F 31.7 °F 29.3 °F 71% 30.05 in 10.0 mi SW 9.2 mph - N/A   Clear
5:55 AM 37.4 °F 30.3 °F 29.1 °F 72% 30.04 in 10.0 mi SW 10.4 mph - N/A   Clear
6:15 AM 37.4 °F 31.4 °F 28.9 °F 71% 30.04 in 10.0 mi SW 8.1 mph - N/A   Clear
6:35 AM 36.9 °F 30.1 °F 28.9 °F 73% 30.04 in 10.0 mi SW 9.2 mph - N/A   Clear
6:55 AM 36.0 °F 29.0 °F 29.1 °F 76% 30.04 in 10.0 mi SSW 9.2 mph - N/A   Clear
7:15 AM 35.6 °F 28.6 °F 28.8 °F 76% 30.04 in 10.0 mi SW 9.2 mph - N/A   Clear
7:35 AM 35.8 °F 29.4 °F 28.9 °F 76% 30.04 in 10.0 mi SW 8.1 mph - N/A   Clear
7:55 AM 36.1 °F 29.9 °F 29.1 °F 76% 30.05 in 10.0 mi SW 8.1 mph - N/A   Clear
8:15 AM 38.1 °F 31.7 °F 29.7 °F 72% 30.05 in 10.0 mi SW 9.2 mph - N/A   Clear
8:35 AM 38.3 °F 31.9 °F 29.3 °F 70% 30.05 in 10.0 mi SSW 9.2 mph - N/A   Clear
8:55 AM 41.0 °F 35.2 °F 30.0 °F 65% 30.06 in 10.0 mi SW 9.2 mph - N/A   Clear
9:15 AM 42.6 °F 37.2 °F 29.3 °F 59% 30.06 in 10.0 mi SW 9.2 mph - N/A   Clear
9:35 AM 45.1 °F 40.3 °F 30.2 °F 56% 30.06 in 10.0 mi SW 9.2 mph - N/A   Clear
9:55 AM 46.6 °F - 30.4 °F 53% 30.07 in 10.0 mi SW 8.1 mph - N/A   Clear
10:15 AM 49.3 °F - 29.5 °F 46% 30.07 in 10.0 mi SW 10.4 mph - N/A   Clear
10:35 AM 51.6 °F - 31.1 °F 45% 30.06 in 10.0 mi SW 9.2 mph - N/A   Clear
10:55 AM 54.5 °F - 30.2 °F 39% 30.05 in 10.0 mi WSW 6.9 mph - N/A   Clear
11:15 AM 56.1 °F - 30.6 °F 38% 30.04 in 10.0 mi WSW 8.1 mph - N/A   Clear
11:35 AM 56.5 °F - 29.1 °F 35% 30.04 in 10.0 mi WSW 10.4 mph 19.6 mph N/A   Clear
11:55 AM 57.0 °F - 30.0 °F 36% 30.02 in 10.0 mi WSW 10.4 mph 19.6 mph N/A   Clear
12:15 PM 57.2 °F - 28.9 °F 34% 30.02 in 10.0 mi West 11.5 mph 19.6 mph N/A   Clear
12:35 PM 57.7 °F - 29.5 °F 34% 30.01 in 10.0 mi WSW 13.8 mph 20.7 mph N/A   Clear
12:55 PM 57.9 °F - 29.5 °F 34% 30.00 in 10.0 mi WSW 12.7 mph 20.7 mph N/A   Clear
1:15 PM 58.5 °F - 29.3 °F 33% 29.99 in 10.0 mi West 9.2 mph 17.3 mph N/A   Clear
1:35 PM 59.2 °F - 29.3 °F 32% 29.99 in 10.0 mi WSW 12.7 mph 19.6 mph N/A   Clear
1:55 PM 59.0 °F - 28.6 °F 31% 29.98 in 10.0 mi West 13.8 mph 18.4 mph N/A   Clear
2:15 PM 59.5 °F - 29.1 °F 32% 29.98 in 10.0 mi WSW 10.4 mph 17.3 mph N/A   Clear
2:55 PM 59.7 °F - 28.6 °F 31% 29.98 in 10.0 mi WSW 12.7 mph 16.1 mph N/A   Clear
3:15 PM 59.5 °F - 27.7 °F 30% 29.97 in 10.0 mi West 11.5 mph 19.6 mph N/A   Clear
3:35 PM 59.4 °F - 27.3 °F 29% 29.97 in 10.0 mi WSW 13.8 mph 20.7 mph N/A   Clear
3:55 PM 59.4 °F - 28.2 °F 31% 29.98 in 10.0 mi WSW 10.4 mph - N/A   Clear
4:15 PM 59.2 °F - 27.1 °F 29% 29.98 in 10.0 mi West 10.4 mph 16.1 mph N/A   Clear
4:35 PM 58.3 °F - 27.1 °F 30% 29.98 in 10.0 mi WSW 5.8 mph - N/A   Clear
4:55 PM 57.4 °F - 28.6 °F 33% 29.99 in 10.0 mi WSW 4.6 mph - N/A   Clear
5:15 PM 56.3 °F - 28.2 °F 34% 29.99 in 10.0 mi West 6.9 mph - N/A   Clear
5:35 PM 55.6 °F - 28.0 °F 35% 30.00 in 10.0 mi Calm Calm - N/A   Clear
5:55 PM 53.2 °F - 29.7 °F 40% 30.02 in 10.0 mi Calm Calm - N/A   Clear
6:15 PM 53.4 °F - 28.9 °F 39% 30.03 in 10.0 mi West 4.6 mph - N/A   Clear
6:35 PM 52.5 °F - 25.5 °F 35% 30.04 in 10.0 mi West 4.6 mph - N/A   Clear
6:55 PM 52.0 °F - 24.3 °F 34% 30.04 in 10.0 mi WNW 4.6 mph - N/A   Clear
7:15 PM 50.5 °F - 24.4 °F 36% 30.05 in 10.0 mi NW 4.6 mph - N/A   Clear
7:35 PM 50.0 °F - 24.8 °F 37% 30.06 in 10.0 mi NW 4.6 mph - N/A   Clear
7:55 PM 49.5 °F - 24.8 °F 38% 30.06 in 10.0 mi WNW 5.8 mph - N/A   Clear
8:15 PM 48.6 °F - 25.3 °F 40% 30.06 in 10.0 mi WNW 3.5 mph - N/A   Clear
8:35 PM 48.2 °F - 25.0 °F 40% 30.06 in 10.0 mi NW 3.5 mph - N/A   Clear
8:55 PM 48.0 °F - 24.8 °F 40% 30.07 in 10.0 mi WNW 3.5 mph - N/A   Clear
9:15 PM 47.3 °F - 25.3 °F 42% 30.07 in 10.0 mi West 3.5 mph - N/A   Clear
9:35 PM 46.6 °F - 25.7 °F 44% 30.07 in 10.0 mi West 3.5 mph - N/A   Clear
9:55 PM 45.5 °F - 26.2 °F 47% 30.07 in 10.0 mi Calm Calm - N/A   Clear
10:15 PM 39.4 °F 36.1 °F 28.9 °F 66% 30.08 in 10.0 mi South 4.6 mph - N/A   Clear
10:35 PM 43.5 °F 41.9 °F 26.8 °F 52% 30.08 in 10.0 mi SW 3.5 mph - N/A   Clear
10:55 PM 42.6 °F 40.9 °F 26.8 °F 54% 30.08 in 10.0 mi SW 3.5 mph - N/A   Clear
11:15 PM 38.1 °F 34.6 °F 28.9 °F 70% 30.08 in 10.0 mi South 4.6 mph - N/A   Clear
11:35 PM 42.1 °F 39.2 °F 26.6 °F 54% 30.08 in 10.0 mi SW 4.6 mph - N/A   Clear
11:55 PM 39.7 °F 36.5 °F 27.3 °F 61% 30.08 in 10.0 mi SW 4.6 mph - N/A   Clear